Content
SEND FEEDBACK

Daily
Averages
Monthly
Summary
United States of America

SOUTH LAKE TAHOE, CALIFORNIA


Home > North America > United States > California
Elevation: 6263 feet     Latitude: 38 53N     Longitude: 119 59W

WEATHER
 
SELECT A DAY
Number of Records: 176,931;   Date Range: 1/1/95 - 10/18/14
 
SHARE

PRINT THIS DATA

[ ← Previous Day ]
WEATHER ALMANAC - APRIL 4, 2013
[ Next Day → ]
[ °C ]   °F
Weather ElementAverageHighLow
Temperature44.5 °F50 °F (1:53 pm)37.9 °F (2:53 am)
Dewpoint34.4 °F37.9 °F (10:53 am)24.1 °F (3:53 am)
Humidity68.6 %82 % (8:53 pm)39 % (3:53 am)
Barometer30.03 in30.11 in (10:15 pm)29.94 in (3:53 am)
Wind Speed7.3 mph18.4 mph (5:18 pm)
Wind Gust32.2 mph (3:12 pm)
Weather ElementAverage
Visibility8.4 mi
Wind DirectionESE (128.1 °)

Weather ElementTotal
Precipitation0.24 in
Heating Degree Days21.1 (Base 65)
Averaged from 37 records on April 4, 2013
WEATHER CONDITIONS BREAKOUT
WIND DIRECTION BREAKOUT
WEATHER BY HOUR - APRIL 4, 2013
[ °C ]   °F
Local TimeTemperatureDewpointHumidityBarometerVisibilityWind DirectionWind SpeedGust SpeedPrecipitationEventsConditions
1:53 AM39.0 °F28.0 °F65 %30.01 in10.0 miCalmClear
2:53 AM37.9 °F28.0 °F68 %29.98 in10.0 miCalmClear
3:53 AM48.0 °F24.1 °F39 %29.94 in10.0 miSW (230°)5.8 mphClear
4:53 AM46.0 °F27.0 °F47 %29.94 in10.0 miCalmClear
5:53 AM41.0 °F30.0 °F65 %29.94 in10.0 miCalmScattered Clouds
6:53 AM39.0 °F30.0 °F70 %29.96 in10.0 miCalmPartly Cloudy
7:53 AM46.9 °F35.1 °F63 %29.95 in10.0 miSouth (190°)12.7 mph18.4 mph0.00 inRainLight Rain
8:35 AM44.6 °F35.6 °F71 %30.06 in5.0 miSouth (190°)13.8 mph23.0 mph0.00 inRainLight Rain
8:53 AM45.0 °F37.0 °F74 %29.99 in5.0 miSSW (200°)10.4 mph17.3 mph0.01 inRainLight Rain
9:49 AM46.4 °F37.4 °F71 %30.09 in7.0 miSouth (190°)13.8 mph23.0 mph0.01 inRainLight Rain
9:53 AM45.0 °F37.0 °F74 %30.01 in6.0 miSSW (200°)6.9 mph23.0 mph0.01 inRainLight Rain
10:53 AM46.0 °F37.9 °F73 %30.02 in6.0 miSouth (170°)15.0 mph23.0 mph0.04 inRainLight Rain
11:53 AM46.9 °F36.0 °F66 %30.03 in10.0 miSouth (180°)10.4 mph23.0 mph0.00 inOvercast
12:53 PM48.0 °F35.1 °F61 %30.02 in10.0 miVariable5.8 mph0.00 inOvercast
1:53 PM50.0 °F32.0 °F50 %30.00 in10.0 miSouth (190°)13.8 mph23.0 mphOvercast
2:53 PM48.9 °F35.1 °F59 %30.00 in10.0 miVariable5.8 mph20.7 mph0.00 inRainLight Rain
3:12 PM50.0 °F33.8 °F54 %30.07 in10.0 miSSE (160°)9.2 mph32.2 mphOvercast
3:53 PM48.0 °F36.0 °F63 %29.98 in10.0 miSSW (210°)9.2 mph24.2 mph0.00 inRainLight Rain
4:12 PM46.4 °F37.4 °F71 %30.08 in6.0 miSouth (180°)5.8 mph25.3 mph0.00 inRainLight Rain
4:19 PM48.2 °F37.4 °F66 %30.08 in10.0 miSouth (170°)11.5 mph19.6 mph0.00 inRainLight Rain
4:53 PM48.0 °F33.1 °F56 %29.99 in10.0 miSSW (200°)6.9 mph24.2 mph0.00 inOvercast
5:18 PM46.4 °F33.8 °F62 %30.08 in10.0 miSSW (200°)18.4 mph27.6 mphOvercast
5:53 PM46.9 °F35.1 °F63 %30.00 in10.0 miSouth (190°)10.4 mph20.7 mph0.00 inRainLight Rain
6:08 PM44.6 °F37.4 °F76 %30.07 in4.0 miVariable3.5 mph0.00 inRainLight Rain
6:15 PM44.6 °F37.4 °F76 %30.07 in10.0 miCalm0.01 inRainLight Rain
6:53 PM46.0 °F36.0 °F68 %30.00 in10.0 miSSW (200°)9.2 mph0.01 inRainLight Rain
7:20 PM44.6 °F37.4 °F76 %30.07 in4.0 miVariable6.9 mph0.01 inRainLight Rain
7:30 PM42.8 °F35.6 °F76 %30.07 in5.0 miSouth (180°)8.1 mph0.02 inRainLight Rain
7:53 PM42.1 °F35.1 °F76 %30.01 in7.0 miSouth (190°)6.9 mph0.04 inRainRain
8:53 PM41.0 °F36.0 °F82 %30.04 in6.0 miSouth (190°)8.1 mph0.02 inRainLight Rain
9:11 PM41.0 °F35.6 °F81 %30.10 in10.0 miSouth (180°)6.9 mph0.00 inRainLight Rain
9:50 PM41.0 °F35.6 °F81 %30.10 in5.0 miSouth (190°)4.6 mph0.01 inRainLight Rain
9:53 PM41.0 °F36.0 °F82 %30.04 in4.0 miSouth (190°)5.8 mph0.01 inRainLight Rain
10:15 PM41.0 °F35.6 °F81 %30.11 in9.0 miSouth (190°)5.8 mph0.01 inRainLight Rain
10:33 PM41.0 °F35.6 °F81 %30.10 in10.0 miVariable3.5 mph0.01 inOvercast
10:53 PM41.0 °F35.1 °F79 %30.03 in10.0 miVariable3.5 mph0.01 inRainLight Rain
11:53 PM41.0 °F33.1 °F73 %30.04 in10.0 miSouth (180°)10.4 mph0.01 inRainLight Rain
Hourly data recorded from KTVL, located miles away from South Lake Tahoe, California







STORIES FROM OUR PARTNERS